Location: Petruro
(41.0333°N, 14.7833°E)
Time: 15:22:52
(UTC+00:00)

Cosmos 2084 Rocket - Pass Details

Date: 20 June 2021
Orbit: 517 x 663 km, 62.8° (Epoch: 05 August)

Event Time Altitude Azimuth Distance (km) Brightness Sun altitude
Exits shadow 02:15:39 15° 199° (SSW) 1,470 4.9 -11.5°
Maximum altitude 02:18:47 58° 122° (ESE) 609 3.6 -11.1°
Drops below altitude 10° 02:22:40 10° 43° (NE) 1,770 7.5 -10.6°
Sets 02:24:54 0° 39° (NE) 2,678 9.0 -10.3°
